Ana Sayfa
METAR-TAF:

METAR-TAF

Havaalanları :

Lowell, Idaho, Amerika Birleşik Devletleri

Enlem: 46-08-39N, Boylam: 115-35-47W, yükseklik: 480 m

Güncel hava durumu gözlemi

Rapor saat 09:52 UTC de 47 dakika önce yapıldı.
Rüzgar kuzey/kuzeydoğudan 3 kt
Sıcaklık 1°C
Nem 100%
Basınç 1018 hPa

METAR: KP69 240952Z AUTO 02003KT 01/01 A3005 RMK AO1 SLP195 T00110006

Saat: 02:39 (10:39 UTC)


TAF: eksik

4.000'den fazla havaalanı için hava durumu gözlemleri ve tahminleri (METAR ve TAF raporları).

Kullanılabilir istasyonlar harita üzerinde sarı ve kırmızı noktalarla gösterilir.

İstasyonun adını görmek için fareyi noktanın üzerinde gezdirin.

Sonrasında hava gözlem ve tahminlerini görmek için tıklayın.

Haritayı değiştirmek için: yaklaştırmak için siyah artı işaretli yeşil düğmeye ve uzaklaştırmak için de eksi işaretli düğmeye hızla tıklayın; bitişik haritalar için yeşil okları kullanın.


METAR-TAF: